When you browse on this site, cookies collect data to enhance your experience and personalize the content and advertising you see.
Visit our Privacy Policy to learn more. By continuing to use the site, you agree to this use of cookies and data.
  • In Netherlands
  • List of Countries
  • For 7 days
  • Water Temperature
  • Satellite Maps
  • Weather Map
  • Weather Widgets
  • user-avatar
    Login

    Hourly Weather Mozdok

    Today, 19 July, Friday

    Time Temperature Precipitation Wind Pressure Humidity
    00:00 +24°C° 0.4 mm 2 mps 746 mmHg 66%
    01:00 +23°C° 0.4 mm 2 mps 746 mmHg 71%
    02:00 +23°C° 0.4 mm 2 mps 746 mmHg 77%
    03:00 +21°C° 0.4 mm 3 mps 746 mmHg 82%
    04:00 +21°C° 0.4 mm 3 mps 746 mmHg 83%
    05:00 +21°C° 0.4 mm 3 mps 747 mmHg 85%
    06:00 +21°C° 0.4 mm 3 mps 747 mmHg 86%
    07:00 +24°C° 0.2 mm 3 mps 747 mmHg 80%
    08:00 +25°C° 0.2 mm 3 mps 748 mmHg 74%
    09:00 +26°C° 0.2 mm 3 mps 748 mmHg 68%
    10:00 +28°C° 0 mm 3 mps 748 mmHg 61%
    11:00 +29°C° 0 mm 2 mps 748 mmHg 54%
    12:00 +31°C° 0 mm 2 mps 748 mmHg 47%
    13:00 +31°C° 0 mm 1 mps 748 mmHg 45%
    14:00 +32°C° 0 mm 1 mps 748 mmHg 43%
    15:00 +33°C° 0 mm 1 mps 747 mmHg 41%
    16:00 +32°C° 0.1 mm 1 mps 748 mmHg 45%
    17:00 +31°C° 0.1 mm 1 mps 748 mmHg 49%
    18:00 +30°C° 0.1 mm 2 mps 748 mmHg 52%
    19:00 +29°C° 0.1 mm 2 mps 748 mmHg 55%
    20:00 +28°C° 0.1 mm 2 mps 748 mmHg 58%
    21:00 +27°C° 0.1 mm 2 mps 749 mmHg 61%
    22:00 +26°C° 0 mm 3 mps 749 mmHg 65%
    23:00 +26°C° 0 mm 4 mps 749 mmHg 69%

    Tomorrow, 20 July, Saturday

    Time Temperature Precipitation Wind Pressure Humidity
    00:00 +25°C° 0 mm 5 mps 750 mmHg 73%
    01:00 +23°C° 0 mm 5 mps 750 mmHg 76%
    02:00 +22°C° 0 mm 4 mps 750 mmHg 79%
    03:00 +22°C° 0 mm 4 mps 750 mmHg 83%
    04:00 +22°C° 0 mm 4 mps 750 mmHg 82%
    05:00 +22°C° 0 mm 4 mps 751 mmHg 82%
    06:00 +22°C° 0 mm 3 mps 751 mmHg 82%
    07:00 +22°C° 0 mm 3 mps 751 mmHg 80%
    08:00 +24°C° 0 mm 3 mps 751 mmHg 77%
    09:00 +24°C° 0 mm 2 mps 752 mmHg 75%
    10:00 +25°C° 0 mm 2 mps 752 mmHg 71%
    11:00 +26°C° 0 mm 2 mps 752 mmHg 67%
    12:00 +27°C° 0 mm 2 mps 752 mmHg 63%
    13:00 +28°C° 0 mm 2 mps 752 mmHg 59%
    14:00 +29°C° 0 mm 2 mps 751 mmHg 55%
    15:00 +30°C° 0 mm 2 mps 751 mmHg 51%
    16:00 +30°C° 0 mm 2 mps 751 mmHg 52%
    17:00 +30°C° 0 mm 2 mps 751 mmHg 52%
    18:00 +30°C° 0 mm 2 mps 751 mmHg 52%
    19:00 +29°C° 0 mm 2 mps 752 mmHg 56%
    20:00 +28°C° 0 mm 2 mps 752 mmHg 59%
    21:00 +27°C° 0 mm 2 mps 752 mmHg 62%
    22:00 +26°C° 0 mm 2 mps 752 mmHg 62%
    23:00 +26°C° 0 mm 2 mps 752 mmHg 62%

    Day after tomorrow, 21 July, Sunday

    Time Temperature Precipitation Wind Pressure Humidity
    00:00 +26°C° 0 mm 2 mps 752 mmHg 62%
    01:00 +25°C° 0 mm 2 mps 752 mmHg 66%
    02:00 +25°C° 0 mm 2 mps 751 mmHg 70%
    03:00 +24°C° 0 mm 1 mps 751 mmHg 73%
    04:00 +24°C° 0 mm 1 mps 751 mmHg 74%
    05:00 +24°C° 0 mm 1 mps 751 mmHg 74%
    06:00 +25°C° 0 mm 1 mps 751 mmHg 75%
    07:00 +26°C° 0 mm 2 mps 751 mmHg 68%
    08:00 +28°C° 0 mm 3 mps 750 mmHg 61%
    09:00 +30°C° 0 mm 4 mps 750 mmHg 54%
    10:00 +32°C° 0 mm 5 mps 750 mmHg 49%
    11:00 +34°C° 0 mm 5 mps 750 mmHg 43%
    12:00 +35°C° 0 mm 5 mps 749 mmHg 37%
    13:00 +36°C° 0 mm 6 mps 749 mmHg 36%
    14:00 +36°C° 0 mm 6 mps 749 mmHg 34%
    15:00 +38°C° 0 mm 6 mps 749 mmHg 32%
    16:00 +36°C° 0 mm 6 mps 749 mmHg 34%
    17:00 +35°C° 0 mm 5 mps 749 mmHg 37%
    18:00 +34°C° 0 mm 5 mps 749 mmHg 39%
    19:00 +32°C° 0 mm 5 mps 750 mmHg 41%
    20:00 +30°C° 0 mm 5 mps 750 mmHg 43%
    21:00 +28°C° 0 mm 4 mps 750 mmHg 46%
    22:00 +27°C° 0 mm 4 mps 750 mmHg 49%
    23:00 +26°C° 0 mm 3 mps 750 mmHg 53%

    22 July, Monday

    Time Temperature Precipitation Wind Pressure Humidity
    00:00 +25°C° 0 mm 3 mps 749 mmHg 56%
    01:00 +25°C° 0.7 mm 2 mps 749 mmHg 63%
    02:00 +24°C° 0.7 mm 2 mps 749 mmHg 69%
    03:00 +24°C° 0.7 mm 1 mps 749 mmHg 76%
    04:00 +24°C° 0.3 mm 1 mps 749 mmHg 77%
    05:00 +24°C° 0.3 mm 1 mps 749 mmHg 78%
    06:00 +24°C° 0.3 mm 1 mps 750 mmHg 79%
    07:00 +25°C° 0 mm 2 mps 749 mmHg 73%
    08:00 +26°C° 0 mm 2 mps 749 mmHg 68%
    09:00 +27°C° 0 mm 2 mps 749 mmHg 63%
    10:00 +29°C° 0 mm 2 mps 749 mmHg 57%
    11:00 +31°C° 0 mm 3 mps 749 mmHg 50%
    12:00 +33°C° 0 mm 4 mps 749 mmHg 43%
    13:00 +33°C° 0.1 mm 4 mps 749 mmHg 44%
    14:00 +33°C° 0.1 mm 5 mps 749 mmHg 45%
    15:00 +33°C° 0.1 mm 5 mps 749 mmHg 46%
    16:00 +30°C° 0.2 mm 4 mps 749 mmHg 53%
    17:00 +29°C° 0.2 mm 4 mps 749 mmHg 59%
    18:00 +27°C° 0.2 mm 3 mps 749 mmHg 65%
    19:00 +26°C° 0.1 mm 2 mps 749 mmHg 68%
    20:00 +25°C° 0.1 mm 2 mps 750 mmHg 71%
    21:00 +25°C° 0.1 mm 1 mps 750 mmHg 73%
    22:00 +24°C° 0 mm 1 mps 749 mmHg 75%
    23:00 +24°C° 0 mm 1 mps 749 mmHg 76%

    23 July, Tuesday

    Time Temperature Precipitation Wind Pressure Humidity
    00:00 +21°C° 0 mm 0 mps 749 mmHg 78%
    01:00 +21°C° 0 mm 0 mps 749 mmHg 78%
    02:00 +21°C° 0 mm 0 mps 749 mmHg 79%
    03:00 +20°C° 0 mm 0 mps 748 mmHg 80%
    04:00 +21°C° 0 mm 0 mps 748 mmHg 79%
    05:00 +21°C° 0 mm 0 mps 748 mmHg 77%
    06:00 +22°C° 0 mm 0 mps 748 mmHg 76%
    07:00 +25°C° 0 mm 1 mps 748 mmHg 68%
    08:00 +27°C° 0 mm 1 mps 748 mmHg 61%
    09:00 +28°C° 0 mm 2 mps 747 mmHg 54%
    10:00 +29°C° 0.2 mm 2 mps 747 mmHg 52%
    11:00 +30°C° 0.2 mm 3 mps 747 mmHg 50%
    12:00 +30°C° 0.2 mm 3 mps 747 mmHg 48%
    13:00 +31°C° 0.3 mm 3 mps 746 mmHg 48%
    14:00 +31°C° 0.3 mm 3 mps 746 mmHg 48%
    15:00 +31°C° 0.3 mm 3 mps 746 mmHg 48%
    16:00 +30°C° 0.4 mm 3 mps 746 mmHg 51%
    17:00 +30°C° 0.4 mm 2 mps 746 mmHg 54%
    18:00 +29°C° 0.4 mm 1 mps 746 mmHg 58%
    19:00 +28°C° 0.6 mm 1 mps 746 mmHg 63%
    20:00 +26°C° 0.6 mm 1 mps 746 mmHg 68%
    21:00 +25°C° 0.6 mm 1 mps 746 mmHg 73%
    22:00 +25°C° 0.3 mm 1 mps 746 mmHg 74%
    23:00 +24°C° 0.3 mm 1 mps 746 mmHg 75%

    24 July, Wednesday

    Time Temperature Precipitation Wind Pressure Humidity
    00:00 +22°C° 0.3 mm 0 mps 745 mmHg 76%
    01:00 +22°C° 0 mm 0 mps 745 mmHg 77%
    02:00 +21°C° 0 mm 0 mps 745 mmHg 78%
    03:00 +21°C° 0 mm 0 mps 745 mmHg 78%
    04:00 +21°C° 0 mm 0 mps 745 mmHg 77%
    05:00 +22°C° 0 mm 0 mps 745 mmHg 76%
    06:00 +22°C° 0 mm 0 mps 745 mmHg 74%
    07:00 +24°C° 0 mm 0 mps 745 mmHg 66%
    08:00 +28°C° 0 mm 1 mps 745 mmHg 59%
    09:00 +29°C° 0 mm 1 mps 744 mmHg 51%
    10:00 +31°C° 0 mm 2 mps 744 mmHg 46%
    11:00 +32°C° 0 mm 2 mps 744 mmHg 41%
    12:00 +35°C° 0 mm 3 mps 744 mmHg 36%
    13:00 +35°C° 0 mm 3 mps 744 mmHg 35%
    14:00 +36°C° 0 mm 3 mps 744 mmHg 33%
    15:00 +37°C° 0 mm 3 mps 743 mmHg 32%
    16:00 +36°C° 0 mm 3 mps 744 mmHg 34%
    17:00 +35°C° 0 mm 3 mps 744 mmHg 37%
    18:00 +35°C° 0 mm 3 mps 744 mmHg 40%
    19:00 +33°C° 0 mm 3 mps 744 mmHg 41%
    20:00 +30°C° 0 mm 3 mps 744 mmHg 42%
    21:00 +28°C° 0 mm 2 mps 745 mmHg 43%
    22:00 +28°C° 0 mm 2 mps 745 mmHg 45%
    23:00 +27°C° 0 mm 1 mps 745 mmHg 47%
    Show more